Stations météo

réclame
Mon MeteoGroup
S. Maria Di Leuca, Italie (16360): Température de l'air & dewpoint: 11.12.2017 03:00:00 - 17.12.2017 03:00:00 (CET)S. Maria Di Leuca, Italie (16360): Vitesse du vent: 11.12.2017 03:00:00 - 17.12.2017 03:00:00 (CET)S. Maria Di Leuca, Italie (16360): Direction du vent: 11.12.2017 03:00:00 - 17.12.2017 03:00:00 (CET)S. Maria Di Leuca, Italie (16360): reduced air pressure: 11.12.2017 03:00:00 - 17.12.2017 03:00:00 (CET)S. Maria Di Leuca, Italie (16360): visibility: 11.12.2017 03:00:00 - 17.12.2017 03:00:00 (CET)S. Maria Di Leuca, Italie (16360): Ensoleillement: 11.12.2017 03:00:00 - 17.12.2017 03:00:00 (CET)
Date & Time tt [°C] td [°C] ff [km/h] ff [knt] dd ppp [hPa] vv [km] sd [min]
17.12.2017 03:00:00 12,4 10,0 13 7 N 1008,3 10 -
17.12.2017 02:00:00 12,8 10,9 4 2 N 1008,2 10 -
17.12.2017 01:00:00 12,8 10,9 5 3 NE 1008,2 10 -
17.12.2017 00:00:00 12,4 10,5 8 4 NNE 1008,3 10 -
16.12.2017 23:00:00 12,4 11,5 13 7 NE 1008,1 10 -
16.12.2017 22:00:00 12,8 10,9 15 8 NNE 1007,4 10 -
16.12.2017 21:00:00 12,8 11,4 15 8 NNE 1007,4 10 -
16.12.2017 20:00:00 13,0 11,9 13 7 NNE 1007,5 10 -
16.12.2017 19:00:00 13,2 11,6 11 6 NNE 1007,3 10 -
16.12.2017 18:00:00 13,4 11,1 8 4 WNW 1006,8 10 -
16.12.2017 17:00:00 13,4 10,9 5 3 W 1006,7 10 -
16.12.2017 16:00:00 13,2 11,6 8 4 WNW 1006,7 9 0
16.12.2017 15:00:00 13,2 11,2 11 6 NW 1006,4 9 0
16.12.2017 14:00:00 14,2 12,2 9 5 N 1006,4 9 0
16.12.2017 13:00:00 14,8 13,2 13 7 WSW 1006,6 8 0
16.12.2017 12:00:00 15,0 13,5 13 7 WSW 1007,4 8 0
16.12.2017 11:00:00 15,0 13,5 21 11 SW 1007,2 8 0
16.12.2017 10:00:00 15,0 13,5 18 10 N 1007,2 8 0
16.12.2017 09:00:00 15,0 13,4 18 10 SSW 1006,3 8 0
16.12.2017 08:00:00 15,0 13,4 18 10 SSW 1006,2 8 0
16.12.2017 07:00:00 15,0 13,9 28 15 SSW 1006,2 8 -
16.12.2017 06:00:00 15,0 13,2 24 13 SSW 1005,3 10 -
16.12.2017 05:00:00 15,0 11,6 28 15 SSW 1005,3 10 -
16.12.2017 04:00:00 14,8 12,5 28 15 SSW 1005,4 10 -
16.12.2017 03:00:00 14,8 13,2 29 16 SSW 1006,1 10 -
16.12.2017 02:00:00 14,8 13,2 28 15 SSW 1006,2 10 -
16.12.2017 01:00:00 15,0 13,4 31 17 SSW 1006,4 10 -
16.12.2017 00:00:00 15,0 13,7 28 15 SSW 1007,3 10 -
15.12.2017 23:00:00 15,0 14,2 29 16 SSW 1007,5 10 -
15.12.2017 22:00:00 14,8 14,2 22 12 SSW 1008,0 10 -
15.12.2017 21:00:00 14,8 14,2 26 14 SSW 1008,0 10 -
15.12.2017 20:00:00 14,8 14,2 22 12 S 1008,2 10 -
15.12.2017 19:00:00 14,8 14,2 28 15 SSW 1008,4 10 -
15.12.2017 18:00:00 14,8 13,8 11 6 SSW 1008,6 12 -
15.12.2017 17:00:00 14,8 13,2 26 14 SSW 1009,2 15 0
15.12.2017 16:00:00 14,8 13,2 28 15 SSW 1009,4 15 12
15.12.2017 15:00:00 15,0 13,4 31 17 SSW 1009,4 15 48
15.12.2017 14:00:00 15,0 11,6 26 14 SSW 1009,7 15 60
15.12.2017 13:00:00 15,0 11,6 28 15 SSW 1010,9 15 60
15.12.2017 12:00:00 15,0 12,1 22 12 SSW 1011,4 15 60
15.12.2017 11:00:00 15,0 11,8 21 11 SSW 1012,4 15 60
15.12.2017 10:00:00 15,0 13,0 21 11 S 1013,3 15 48
15.12.2017 09:00:00 14,8 12,7 22 12 SSW 1013,3 15 60
15.12.2017 08:00:00 14,2 12,6 21 11 SSW 1013,4 15 12
15.12.2017 07:00:00 14,2 12,2 22 12 SSW 1013,7 15 0
15.12.2017 06:00:00 13,6 11,3 24 13 SSW 1014,0 12 -
15.12.2017 05:00:00 13,6 12,2 16 9 SSW 1014,3 12 -
15.12.2017 04:00:00 13,6 12,3 15 8 SSW 1014,4 12 -
15.12.2017 03:00:00 13,6 12,3 16 9 S 1014,6 12 -
15.12.2017 02:00:00 13,6 11,5 16 9 SSW 1015,1 12 -
15.12.2017 01:00:00 13,6 11,5 15 8 S 1015,1 12 -
15.12.2017 00:00:00 13,4 11,8 13 7 S 1015,3 12 -
14.12.2017 23:00:00 13,2 11,1 8 4 SSE 1015,5 12 -
14.12.2017 22:00:00 13,2 11,1 11 6 SSE 1015,8 12 -
14.12.2017 21:00:00 13,0 9,8 9 5 ESE 1016,1 12 -
14.12.2017 20:00:00 13,2 10,0 15 8 ESE 1016,2 12 -
14.12.2017 19:00:00 13,4 10,4 9 5 SE 1016,3 12 -
14.12.2017 18:00:00 13,6 9,5 13 7 SSE 1016,3 15 -
14.12.2017 17:00:00 13,8 9,2 15 8 S 1016,3 15 0
14.12.2017 16:00:00 14,0 9,2 13 7 S 1016,3 20 36
14.12.2017 15:00:00 14,4 9,0 11 6 SSW 1016,2 20 12
14.12.2017 14:00:00 14,6 6,2 11 6 WSW 1016,4 20 18
14.12.2017 13:00:00 14,4 6,3 16 9 W 1016,5 20 36
14.12.2017 12:00:00 14,4 6,2 21 11 WNW 1017,2 20 0
14.12.2017 11:00:00 14,4 7,2 22 12 W 1017,4 20 60
14.12.2017 10:00:00 14,0 6,4 22 12 W 1017,4 20 60
14.12.2017 09:00:00 13,2 6,8 13 7 W 1017,4 20 60
14.12.2017 08:00:00 12,2 5,4 16 9 WNW 1017,5 15 30
14.12.2017 07:00:00 12,2 6,5 15 8 NW 1016,9 15 -
14.12.2017 06:00:00 12,6 8,9 13 7 WNW 1016,9 10 -
14.12.2017 05:00:00 12,8 8,5 15 8 WNW 1016,9 12 -
14.12.2017 04:00:00 13,0 10,5 15 8 WNW 1016,9 10 -
14.12.2017 03:00:00 13,2 11,1 16 9 NW 1016,9 10 -
14.12.2017 02:00:00 13,4 12,1 15 8 WNW 1016,8 10 -
14.12.2017 01:00:00 13,8 12,2 15 8 NW 1016,9 10 -
14.12.2017 00:00:00 14,0 12,4 18 10 WNW 1017,3 10 -
13.12.2017 23:00:00 14,8 13,2 11 6 WNW 1017,5 10 -
13.12.2017 22:00:00 15,0 13,0 9 5 WNW 1017,5 10 -
13.12.2017 21:00:00 15,0 12,5 8 4 W 1017,5 10 -
13.12.2017 20:00:00 15,0 12,9 4 2 E 1017,4 10 -
13.12.2017 19:00:00 14,8 12,8 5 3 SSE 1017,8 10 -
13.12.2017 18:00:00 15,0 13,0 5 3 SSW 1017,7 10 -
13.12.2017 17:00:00 15,0 13,4 8 4 SW 1017,8 10 -
13.12.2017 16:00:00 15,4 13,9 9 5 SSW 1018,3 12 0
13.12.2017 15:00:00 16,0 14,0 8 4 ESE 1018,5 12 0
13.12.2017 14:00:00 16,0 14,0 11 6 S 1018,6 12 6
13.12.2017 13:00:00 16,0 13,8 11 6 S 1019,1 12 6
13.12.2017 12:00:00 16,0 13,8 11 6 WNW 1019,7 12 0
13.12.2017 11:00:00 15,8 13,7 13 7 WNW 1020,1 10 12
13.12.2017 10:00:00 15,4 13,1 11 6 S 1020,4 10 0
13.12.2017 09:00:00 15,4 12,9 13 7 S 1020,2 10 0
13.12.2017 08:00:00 15,4 13,1 15 8 S 1020,3 10 0
13.12.2017 07:00:00 15,2 12,7 18 10 S 1020,1 10 -
13.12.2017 06:00:00 15,2 12,7 18 10 S 1019,9 10 -
13.12.2017 05:00:00 15,0 12,5 18 10 S 1019,9 10 -
13.12.2017 04:00:00 15,0 12,5 16 9 S 1019,9 10 -
13.12.2017 03:00:00 15,0 12,7 22 12 S 1020,4 10 -
13.12.2017 02:00:00 15,2 13,1 24 13 S 1020,4 10 -
13.12.2017 01:00:00 15,2 13,2 22 12 S 1020,9 10 -
13.12.2017 00:00:00 15,4 13,2 18 10 S 1021,0 10 -
12.12.2017 23:00:00 15,2 13,0 18 10 S 1021,0 10 -
12.12.2017 22:00:00 15,2 13,2 18 10 S 1021,0 10 -
12.12.2017 21:00:00 15,2 13,2 18 10 S 1020,6 10 -
12.12.2017 20:00:00 15,2 13,9 21 11 S 1019,8 10 -
12.12.2017 19:00:00 15,4 14,6 18 10 S 1019,4 10 -
12.12.2017 18:00:00 15,4 14,6 21 11 S 1019,2 10 -
12.12.2017 17:00:00 15,6 14,6 16 9 S 1019,0 10 0
12.12.2017 16:00:00 16,0 15,0 18 10 SSW 1018,8 10 42
12.12.2017 15:00:00 16,2 15,1 22 12 SSW 1018,4 12 60
12.12.2017 14:00:00 16,4 15,1 26 14 SSW 1018,4 12 60
12.12.2017 13:00:00 16,4 14,4 24 13 SSW 1018,7 12 60
12.12.2017 12:00:00 16,4 14,2 26 14 SSW 1019,3 12 60
12.12.2017 11:00:00 16,2 14,0 26 14 SW 1019,3 12 60
12.12.2017 10:00:00 16,0 14,0 24 13 S 1019,1 12 60
12.12.2017 09:00:00 15,8 13,7 24 13 SSW 1019,0 12 54
12.12.2017 08:00:00 15,0 13,2 21 11 S 1018,9 10 0
12.12.2017 07:00:00 15,0 13,2 22 12 SSW 1018,3 10 -
12.12.2017 06:00:00 15,0 13,0 24 13 S 1018,0 10 -
12.12.2017 05:00:00 15,2 13,0 22 12 S 1017,6 10 -
12.12.2017 04:00:00 15,0 12,9 21 11 S 1017,6 10 -
12.12.2017 03:00:00 15,2 13,2 22 12 S 1017,6 10 -
12.12.2017 02:00:00 15,0 13,4 22 12 SSW 1017,6 10 -
12.12.2017 01:00:00 15,2 13,6 26 14 NNE 1017,6 10 -
12.12.2017 00:00:00 15,2 13,6 26 14 ENE 1017,6 10 -
11.12.2017 23:00:00 15,2 13,6 28 15 S 1017,6 10 -
11.12.2017 22:00:00 15,0 13,0 11 6 S 1017,8 10 -
11.12.2017 21:00:00 14,8 12,7 24 13 S 1018,0 10 -
11.12.2017 20:00:00 14,2 11,2 26 14 N 1017,9 8 -
11.12.2017 19:00:00 14,2 11,9 26 14 SSW 1018,1 8 -
11.12.2017 18:00:00 14,4 12,8 22 12 S 1017,8 10 -
11.12.2017 17:00:00 14,6 13,5 24 13 S 1017,6 8 0
11.12.2017 16:00:00 14,6 14,0 28 15 S 1017,4 8 0
11.12.2017 15:00:00 14,8 14,2 29 16 S 1017,4 15 0
11.12.2017 14:00:00 14,8 13,8 29 16 S 1017,4 15 0
11.12.2017 13:00:00 14,8 13,0 28 15 S 1017,9 15 6
11.12.2017 12:00:00 14,8 12,0 28 15 S 1018,3 15 54
11.12.2017 11:00:00 14,8 9,4 26 14 SSW 1018,6 15 60
11.12.2017 10:00:00 13,8 9,0 34 18 SSW 1018,7 15 48
11.12.2017 09:00:00 13,4 9,8 26 14 S 1018,5 15 12
11.12.2017 08:00:00 12,6 10,0 26 14 SSW 1018,3 15 0
11.12.2017 07:00:00 12,0 7,1 26 14 SSW 1018,4 12 0
11.12.2017 06:00:00 12,0 6,9 28 15 SSW 1018,4 12 -
11.12.2017 05:00:00 11,4 7,7 22 12 SSW 1018,4 12 -
11.12.2017 04:00:00 12,0 8,1 22 12 SSW 1018,7 12 -
11.12.2017 03:00:00 10,2 5,6 18 10 SSW 1018,8 12 -

tt = Température de l'air
td = dewpoint
ff = Vitesse du vent
dd = Direction du vent
ppp = reduced air pressure
vv = visibility
sd = Ensoleillement

stations d'obs. à proximité